Regional Weather Roundup
Issued by NWS

Home | Current Version | Previous Version | Graphics & Text | Print | Product List | Glossary On
Versions: 1 2 3 4 5 6 7 8 9 10 11 12 13 14 15 16 17 18 19 20 21 22 23 24 25 26 27 28 29 30 31 32 33 34 35 36 37 38 39 40 41 42 43 44 45 46 47 48 49 50
000
ASUS45 KBOU 211507
RWRCO

WEATHER ROUNDUP FOR COLORADO
NATIONAL WEATHER SERVICE DENVER/BOULDER CO
900 AM MDT THU AUG 21 2014

NOTE: "FAIR" INDICATES FEW OR NO CLOUDS BELOW 12000 FEET WITH NO
SIGNIFICANT WEATHER AND/OR OBSTRUCTIONS TO VISIBILITY.

COZ001>005-013-030-031-211600-
...NORTHWEST COLORADO...

CITY           SKY/WX    TMP DP  RH WIND       PRES   REMARKS
CRAIG          SUNNY     60  52  74 E9        30.22S
HAYDEN         SUNNY     57  48  72 E9        30.24S
MEEKER         SUNNY     59  50  72 CALM      30.23S
MOUNT WERNER   NOT AVBL
STEAMBOAT SPGS SUNNY     54  48  81 NW6       30.26S
WALDEN         MOSUNNY   54  43  66 S7        30.30R
$$

COZ006>008-011-211600-
...WEST CENTRAL VALLEYS...

CITY           SKY/WX    TMP DP  RH WIND       PRES   REMARKS
GRAND JUNCTION SUNNY     67  48  50 SE12      30.16R
MONTROSE       SUNNY     64  45  49 VRB3      30.24S
EAGLE          MOSUNNY   55  52  88 CALM      30.29S
RIFLE          SUNNY     60  49  66 VRB3      30.21S
DELTA          SUNNY     65  49  54 E6        30.20S
NUCLA          SUNNY     59  46  63 CALM      30.26S
$$

COZ017>023-064>068-211600-
...SOUTHWEST COLORADO...

CITY           SKY/WX    TMP DP  RH WIND       PRES   REMARKS
DURANGO        SUNNY     62  41  46 E3        30.26R
CORTEZ         SUNNY     63  43  48 CALM      30.22F
PAGOSA SPRINGS SUNNY     56  40  56 CALM      30.32R
TELLURIDE      SUNNY     55  39  54 CALM      30.41S
WOLF CREEK PAS NOT AVBL
$$

COZ009-010-012-014-032>034-037-058>063-211600-
...CENTRAL COLORADO...

CITY           SKY/WX    TMP DP  RH WIND       PRES   REMARKS
ASPEN          MOSUNNY   55  41  59 CALM      30.32S
BUENA VISTA    MOSUNNY   61  39  45 NW14      30.30F
COPPER MTN     MOSUNNY   45  37  76 W3        30.55S
BERTHOUD PASS  PTSUNNY   34  34 100 NW17      30.57R FOG     WCI  23
COTTONWOOD PAS MOSUNNY   57  34  41 W15G22    30.42S
GUNNISON       SUNNY     52  39  62 N3        30.37F
KREMMLING      SUNNY     55  45  67 CALM      30.31S
LEADVILLE      MOSUNNY   52  38  58 N9        30.42S
MONARCH PASS   MOSUNNY   39  36  87 W21       30.64S
SALIDA         MOSUNNY   61  42  49 CALM      30.36R
SUNLIGHT       SUNNY     46  43  87 CALM      30.50R
WILKERSON PASS NOT AVBL
$$

COZ069>075-211600-
...SAN LUIS VALLEY/SANGRE DE CRISTO MOUNTAINS...

CITY           SKY/WX    TMP DP  RH WIND       PRES   REMARKS
ALAMOSA        MOSUNNY   60  41  49 CALM      30.30S
LA VETA PASS   NOT AVBL
SAGUACHE       MOSUNNY   57  41  54 NW8       30.33R
$$

COZ035-036-038>040-211600-
...NORTHERN COLORADO FRONT RANGE...

CITY           SKY/WX    TMP DP  RH WIND       PRES   REMARKS
DENVER INTL AP MOSUNNY   68  55  63 SW10      30.10S
DMNS CITY PARK   N/A     68  54  59 SW6       30.10S
AURORA         MOSUNNY   67  54  62 SW10      30.13R
FRONT RANGE AP NOT AVBL
ERIE MUNI ARPT MOSUNNY   69  53  57 CALM      30.09S
BOULDER MUN AP MOSUNNY   68  52  56 CALM      30.10R
CENTENNIAL     PTSUNNY   67  51  56 W6        30.14R
BROOMFIELD     PTSUNNY   72  52  49 N6        30.13R
FORT COLLINS   SUNNY     70  50  49 CALM      30.10R
LONGMONT       SUNNY     73  53  49 NE3       30.10R
$$

COZ041-046-047-076>085-087-088-211600-
...PIKES PEAK/PALMER DIVIDE AND SOUTHERN FOOTHILLS...

CITY           SKY/WX    TMP DP  RH WIND       PRES   REMARKS
COLO. SPRINGS  MOSUNNY   72  48  42 CALM      30.18R
A. F. ACADEMY  MOSUNNY   70  49  47 S3        30.19R
ELLICOTT       MOSUNNY   69  54  58 N3        30.15R
FALCON         MOSUNNY   70  46  43 CALM      30.22S
FORT CARSON    MOSUNNY   72  52  49 S3        30.14S
LIMON          SUNNY     74  52  46 NW6       30.11R
MONUMENT HILL  SUNNY     68  48  49 CALM      30.21S
TRINIDAD       SUNNY     71  51  49 W8        30.16R
$$

COZ042>045-048>051-090-091-211600-
...NORTHEAST COLORADO...

CITY           SKY/WX    TMP DP  RH WIND       PRES   REMARKS
GREELEY ARPT   SUNNY     66  52  59 CALM      30.07F
AKRON          SUNNY     71  56  58 NW14      30.06R
BURLINGTON     SUNNY     77  54  44 N12       30.02R
WRAY             N/A     79  51  37 NW17      29.98R
STERLING       SUNNY     79  54  41 NW10      30.01S
HOLYOKE        NOT AVBL
FORT MORGAN    SUNNY     76  50  39 NW10      30.06R
$$

COZ086-089-092>099-211600-
...SOUTHEAST COLORADO...

CITY           SKY/WX    TMP DP  RH WIND       PRES   REMARKS
PUEBLO         SUNNY     73  52  47 W7        30.08R
LA JUNTA       SUNNY     76  57  51 W8        30.04S
LAMAR          SUNNY     77  56  48 NW8       29.99R
SPRINGFIELD      N/A     74  55  51 NW16G22   30.03R
$$


USA.gov is the U.S. government's official web portal to all federal, state and local government web resources and services.